Regional Weather Roundup
Issued by NWS New Orleans/Baton Rouge, LA

Home | Current Version | Previous Version | Graphics & Text | Print | Product List | Glossary On
Versions: 1 2 3 4 5 6 7 8 9 10 11 12 13 14 15 16 17 18 19 20 21 22 23 24 25 26 27 28 29 30 31 32 33 34 35 36 37 38 39 40 41 42 43 44 45 46 47 48 49 50
900
ASUS44 KLIX 220401
RWRLIX
NEW ORLEANS REGIONAL WEATHER ROUNDUP
NATIONAL WEATHER SERVICE NEW ORLEANS LA
1100 PM CDT SUN SEP 21 2014

NOTE: "FAIR" INDICATES FEW OR NO CLOUDS BELOW 12,000 FEET WITH NO
      SIGNIFICANT WEATHER AND/OR OBSTRUCTIONS TO VISIBILITY.
      SKY/WX - SKY CONDITION AND SIGNIFICANT WEATHER.
      TMP - AIR TEMPERATURE.     DP    - DEWPOINT TEMPERATURE.
      RH  - RELATIVE HUMIDITY.   PRES  - PRESSURE.
      HI  - HEAT INDEX.          WCI   - WIND CHILL INDEX.

*  THESE STATIONS ARE NOT NWS OR FAA STATIONS AND ARE NOT UNDER
   NWS QUALITY CONTROL.

LAZ038-040-048-061>063-065>067-069-220500-
SOUTHEAST LOUISIANA

CITY           SKY/WX    TMP DP  RH WIND       PRES   REMARKS
N.O. AUDUBON   NOT AVBL
N.O. INTL ARPT PTCLDY    77  66  68 CALM      30.02R
N.O. LAKEFRONT CLEAR     78  71  79 S3        30.02R
N.O. DOWNTOWN*   N/A     81  66  61 SE5       30.02S
SLIDELL        CLEAR     71  68  90 CALM      30.01S
BATON ROUGE    CLEAR     71  69  93 CALM      30.02S
BOOTHVILLE     CLEAR     81  73  76 E5        30.00S
BELLE CHASSE   CLEAR     72  68  87 N5        30.01R
BOGALUSA*        N/A     71  67  87 CALM      30.03S
GALLIANO*      NOT AVBL
NEW ROADS*       N/A     72  70  94 CALM      30.03S
GONZALES*        N/A     71  71 100 CALM      30.02S
HAMMOND*       NOT AVBL
HOUMA*         CLEAR     71  66  84 CALM      30.02R
PORT FOURCHON* CLEAR     81  73  78 E7        30.03S

$$

MSZ070-080>082-220500-
SOUTHERN MISSISSIPPI

CITY           SKY/WX    TMP DP  RH WIND       PRES   REMARKS
MCCOMB         CLEAR     71  66  84 N5        30.04R
GULFPORT       CLEAR     74  70  87 CALM      30.01R
BILOXI         CLEAR     78  70  75 SE1       30.01S
PASCAGOULA     CLEAR     69  68  96 CALM      30.01S

$$

COASTAL OBSERVATIONS
LAKE AND NEARSHORE STATIONS

STATION/POSITION TIME  TEMP    WIND        PRES    WAVE
                       AIR SEA DIR/SP/G            HT/PER
                 (UTC) (F)     (DEG/KT/KT) (MB)    (FT/S)
PASCAGOULA       0300   81     140/  3/  4 1015.8
WAVELAND YACHT   0300   82     130/  5/  6 1015.6
GRAND ISLE       0300   81 83   80/  9/ 12 1016.4
SOUTHWEST PASS   0300   84 89   80/ 16/ 17 1015.8
NEW CANAL        0300   79 81  140/  1/  2 1016.8
SHELL BEACH      0300   80 79  110/  6/  7 1016.0

OFFSHORE STATIONS

STATION/POSITION TIME  TEMP    WIND        PRES    WAVE
                       AIR SEA DIR/SP/G            HT/PER
                 (UTC) (F)     (DEG/KT/KT) (MB)    (FT/S)
64 S DAUPHIN ISL 0322   81 84   70/ 12/ 14 1015.9    3/ 6

$$




USA.gov is the U.S. government's official web portal to all federal, state and local government web resources and services.